Terminal Aerodrome Forecast
Issued by NWS Spokane, WA

Home | Current Version | Previous Version | Text Only | Print | Product List | Glossary On
Versions: 1 2 3 4 5 6 7 8 9 10 11 12 13 14 15 16 17
000
FTUS46 KOTX 210540
TAFLWS
TAF
KLWS 210540Z 2106/2206 00000KT P6SM OVC080
     FM211000 13005KT P6SM OVC050
     FM211100 08003KT P6SM -RA SCT025 OVC050
     FM211700 22008KT P6SM VCSH BKN040 OVC060
     FM212100 27010G19KT P6SM -RA SCT030 OVC040
     FM220300 26009KT P6SM VCSH BKN050=

USA.gov is the U.S. government's official web portal to all federal, state and local government web resources and services.